Volver al catálogo

HULIANWANG DIGUI-43

ActivoComunicacionesLEO
NORAD 65046·PAYLOAD·🇨🇳 China

Lanzado Jul 30, 2025 desde Wenchang Space Launch Site

Loading…

Próximos Pases (próximas 24 horas)

TLE

ActualizadoSource: Space-Track

Época: Sep 14, 2026, 21:43 UTC

1 65046U 25162D   26257.90523616 -.00000094  00000-0  64979-4 0  9994
2 65046  49.9995 303.8915 0000631 257.8169 102.2633 13.29326062 55297

Sigue HULIANWANG DIGUI-43 en tiempo real con AllMySat

Download on the App Store